sat.trackr.live / text

‹ back to catalog

STARLINK-6294

NORAD 57225 · 2023-094H

PAYLOAD ACTIVE UNKNOWN

§ Identity

Operator
Country
US
Launch date
2023-07-07
Launch site
AFWTR
Launch vehicle
Mass (kg)
RCS (m²)

Purposes: comms

External: N2YO · Heavens-Above · Gunter

§ Orbital elements

Epoch: 2026-05-24T21:12:23.255136Z

Period
94.27 min
Inclination
43.0056°
Eccentricity
0.0001595
Mean motion
15.27577552 rev/d
Perigee alt
482.0 km
Apogee alt
484.2 km
Semi-major
6,861.2 km
B*
2.1646e-5
RAAN
320.8194°
Arg perigee
271.3941°
Mean anomaly
88.6728°
Rev number
15,876

§ Raw data

STARLINK-62941 57225U 23094H   26144.88360249  .00000333  00000+0  21646-4 0  99972 57225  43.0056 320.8194 0001595 271.3941  88.6728 15.27577552158767

JSON: /api/v1/satellites/57225 · /tle

For live sub-satellite position, see the globe view (requires WebGL).

§ Visibility from observer

Set your observer location to see the next 7 days of passes ≥ 10°. The values pass through the URL so the page stays shareable.

No JS? Fill the form by hand. The geolocation button needs JavaScript.